FW6626 Weather Reports


time (UTC)temp
F
wind
direction
speed
knots
gust
knots
rain 1hr
in
rain 24hr
in
rain mn
in
humidity
%
barometer
mb
20260510183054 68 233 4.3 9.6 0.00 0.00 0.00 75 1014.3
20260510181555 68 360 3.5 8.7 0.00 0.00 0.00 75 1014.4
20260510180106 68 224 3.5 7.8 0.00 0.00 0.00 75 1014.4
20260510174550 67 360 4.3 7.8 0.00 0.00 0.00 76 1014.4
20260510173056 66 231 3.5 7.8 0.00 0.00 0.00 77 1014.4
20260510171602 67 251 4.3 7.8 0.00 0.00 0.00 77 1014.2
20260510170053 68 236 0.9 7.0 0.00 0.00 0.00 76 1014.2
20260510164605 68 242 1.7 4.3 0.00 0.00 0.00 75 1014.1
20260510163125 66 231 1.7 6.1 0.00 0.00 0.00 78 1014.0
20260510161555 64 272 0.9 5.2 0.00 0.00 0.00 80 1013.9
20260510160101 65 290 0.0 2.6 0.00 0.00 0.00 78 1013.8
20260510154606 63 291 0.0 1.7 0.00 0.00 0.00 80 1013.7
20260510153102 63 293 0.9 2.6 0.00 0.00 0.00 81 1013.8
20260510151625 62 346 0.0 3.5 0.00 0.00 0.00 82 1013.7
20260510150106 62 331 0.9 2.6 0.00 0.00 0.00 82 1013.7
20260510144614 62 331 0.9 3.5 0.00 0.00 0.00 82 1013.6
20260510143107 62 0 0.0 2.6 0.00 0.00 0.00 83 1013.5
20260510141600 62 279 0.0 2.6 0.00 0.00 0.00 84 1013.5
20260510140056 61 0 0.0 2.6 0.00 0.00 0.00 84 1013.4
20260510134559 61 283 0.0 2.6 0.00 0.00 0.00 84 1013.4
20260510133049 61 0 0.0 4.3 0.00 0.00 0.00 84 1013.2
20260510131555 61 0 0.0 3.5 0.00 0.00 0.00 85 1013.1
20260510130054 61 265 0.0 1.7 0.00 0.00 0.00 85 1013.1
20260510124558 61 266 1.7 3.5 0.00 0.00 0.00 85 1013.0
20260510123052 61 0 0.0 0.9 0.00 0.00 0.00 84 1013.0
20260510121554 61 0 0.0 1.7 0.00 0.00 0.00 84 1012.9
20260510114555 61 252 0.9 2.6 0.00 0.00 0.00 84 1012.9
20260510113104 61 230 1.7 3.5 0.00 0.00 0.00 84 1013.0
20260510111551 61 0 0.0 2.6 0.00 0.00 0.00 84 1013.0
20260510110056 61 149 0.0 3.5 0.00 0.00 0.00 84 1013.0
20260510104555 61 0 0.9 4.3 0.00 0.00 0.00 84 1013.0
20260510103059 61 148 0.9 2.6 0.00 0.00 0.00 84 1013.0
20260510101554 61 0 0.9 2.6 0.00 0.00 0.00 84 1013.1
20260510100109 61 147 0.9 3.5 0.00 0.00 0.00 84 1013.1
20260510094600 61 144 0.0 2.6 0.00 0.00 0.00 83 1013.1
20260510093058 61 144 0.0 2.6 0.00 0.00 0.00 83 1013.1
20260510091554 61 143 1.7 4.3 0.00 0.00 0.00 83 1013.2
20260510090058 61 0 0.0 4.3 0.00 0.00 0.00 83 1013.1
20260510084611 61 182 0.9 4.3 0.00 0.00 0.00 83 1013.2
20260510083053 62 215 0.0 2.6 0.00 0.00 0.00 83 1013.3
20260510081555 62 0 0.0 0.0 0.00 0.00 0.00 83 1013.4
20260510080051 62 0 0.0 0.0 0.00 0.00 0.00 83 1013.5
20260510074549 62 217 0.9 4.3 0.00 0.00 0.00 83 1013.6
20260510073103 62 226 1.7 3.5 0.00 0.00 0.00 83 1013.7
20260510071553 62 236 0.9 2.6 0.00 0.00 0.00 83 1013.8
20260510070059 62 237 0.0 1.7 0.00 0.00 0.00 83 1013.9
20260510064552 62 237 0.0 2.6 0.00 0.00 0.00 83 1013.9
20260510063053 62 0 0.0 1.7 0.00 0.00 0.00 83 1014.1
20260510061556 62 239 0.0 2.6 0.00 0.00 0.00 83 1014.0
20260510060055 62 240 0.0 2.6 0.00 0.00 0.00 83 1013.8
20260510054551 62 242 0.9 3.5 0.00 0.00 0.00 82 1013.8
20260510053051 62 243 0.9 2.6 0.00 0.00 0.00 82 1013.9
20260510051550 62 244 0.0 1.7 0.00 0.00 0.00 82 1013.8
20260510050052 62 244 0.9 3.5 0.00 0.00 0.00 82 1013.8
20260510044556 62 0 1.7 3.5 0.00 0.00 0.00 82 1013.8
20260510043102 61 241 0.0 1.7 0.00 0.00 0.00 83 1013.8
20260510041551 61 240 0.9 2.6 0.00 0.00 0.00 83 1013.7
20260510040100 61 0 0.9 2.6 0.00 0.00 0.00 82 1013.5
20260510034557 61 242 1.7 3.5 0.00 0.00 0.00 83 1013.6
20260510033115 61 240 0.9 3.5 0.00 0.00 0.00 82 1013.4
20260510031558 62 244 0.9 3.5 0.00 0.00 0.00 82 1013.1
20260510030059 62 242 1.7 4.3 0.00 0.00 0.00 82 1013.0
20260510024552 62 248 0.9 4.3 0.00 0.00 0.00 82 1012.9
20260510023049 62 229 1.7 5.2 0.00 0.00 0.00 82 1012.9
20260510021550 62 239 1.7 4.3 0.00 0.00 0.00 81 1012.8
20260510020053 63 250 0.9 7.0 0.00 0.00 0.00 81 1012.6
20260510014555 64 259 2.6 7.0 0.00 0.00 0.00 80 1012.7
20260510013055 65 238 2.6 7.8 0.00 0.00 0.00 78 1012.7
20260510011552 67 242 1.7 7.0 0.00 0.00 0.00 76 1012.7
20260510010059 67 235 1.7 8.7 0.00 0.00 0.00 76 1012.7
20260510004610 67 252 2.6 8.7 0.00 0.00 0.00 75 1012.8
20260510003057 66 290 4.3 9.6 0.00 0.00 0.00 76 1012.9
20260510001553 67 259 3.5 10.4 0.00 0.00 0.00 75 1012.8
20260510000104 67 360 5.2 9.6 0.00 0.00 0.00 76 1012.5
20260509234559 68 211 3.5 8.7 0.00 0.00 0.00 74 1012.3
20260509233052 69 252 2.6 10.4 0.00 0.00 0.00 73 1012.5
20260509231554 68 238 4.3 8.7 0.00 0.00 0.00 73 1012.6
20260509230050 68 261 4.3 10.4 0.00 0.00 0.00 73 1012.5
20260509224555 68 225 5.2 9.6 0.00 0.00 0.00 74 1012.8
20260509223101 69 228 2.6 9.6 0.00 0.00 0.00 72 1012.8
20260509221552 70 182 4.3 10.4 0.00 0.00 0.00 71 1012.9
20260509220053 68 250 3.5 8.7 0.00 0.00 0.00 73 1013.0
20260509214602 68 240 3.5 12.2 0.00 0.00 0.00 73 1013.2
20260509213055 69 234 4.3 9.6 0.00 0.00 0.00 73 1013.2
20260509211554 69 252 5.2 11.3 0.00 0.00 0.00 73 1013.4
20260509210106 68 230 5.2 11.3 0.00 0.00 0.00 75 1013.6
20260509204558 68 245 4.3 10.4 0.00 0.00 0.00 74 1013.6
20260509203059 69 234 4.3 9.6 0.00 0.00 0.00 74 1013.8
20260509201608 69 249 5.2 10.4 0.00 0.00 0.00 73 1013.9
20260509200107 68 246 4.3 10.4 0.00 0.00 0.00 74 1013.9
20260509194554 68 360 4.3 10.4 0.00 0.00 0.00 75 1013.8
20260509193057 68 236 4.3 11.3 0.00 0.00 0.00 74 1013.8
20260509191553 69 198 5.2 11.3 0.00 0.00 0.00 75 1013.8
20260509190053 69 222 4.3 8.7 0.00 0.00 0.00 74 1013.9
20260509184602 69 217 4.3 8.7 0.00 0.00 0.00 74 1013.9